View from above orbital plane
|
View from above satellite
|
Ground track
|
The orbit data is extracted from the following two-line orbital elements,
1 42759U 17034B 22138.46283935 .00003678 00000-0 22521-3 0 9997
2 42759 43.0160 137.9810 0007382 98.5459 64.8496 15.11664943271818
Epoch (UTC): | 18 May 2022 11:06:29 |
Eccentricity: | 0.0007382 |
inclination: | 43.0160° |
perigee height: | 526 km |
apogee height: | 536 km |
right ascension of ascending node: | 137.9810° |
argument of perigee: | 98.5459° |
revolutions per day: | 15.11664943 |
mean anomaly at epoch: | 64.8496° |
orbit number at epoch: | 27181 |
The dashed part of the orbit path shows where the satellite is in the earth's shadow,
|
|